Regional Weather Roundup
Issued by NWS

Home | Current Version | Previous Version | Text Only | Print | Product List | Glossary Off
Versions: 1 2 3 4 5 6 7 8 9 10 11 12 13 14 15 16 17 18 19 20 21 22 23 24 25 26 27 28 29 30 31 32 33 34 35 36 37 38 39 40 41 42 43 44 45 46 47 48 49 50

278
ASUS43 KDTX 211410
RWRMI
MICHIGAN HOURLY REGIONAL WEATHER ROUNDUP
NATIONAL WEATHER SERVICE DETROIT/PONTIAC MI
900 AM EST TUE NOV 21 2017

NOTE: "FAIR" INDICATES FEW OR NO CLOUDS BELOW 12,000 FEET WITH NO
SIGNIFICANT WEATHER AND/OR OBSTRUCTION TO VISIBILITY.

MIZ047>049-052>055-059>063-066>070-074>076-081>083-211500-
SOUTHEAST LOWER MICHIGAN

CITY           SKY/WX    TMP DP  RH WIND       PRES   REMARKS
ADRIAN         PTSUNNY   40  28  62 SW16G23   29.75R WCI  31
ALMA           SUNNY     42  32  69 SW15      29.61R
ANN ARBOR      MOSUNNY   41  28  60 S14G24    29.71F
BAD AXE        CLOUDY    42  29  60 SW13G20   29.59R
CARO           CLOUDY    42  29  61 SW15G23   29.60R
DETROIT CITY   CLOUDY   N/A N/A N/A SW16G24   29.72S
DETROIT        CLOUDY    42  28  57 SW20      29.73F
FLINT          CLOUDY    42  28  57 SW18G24   29.64S
GROSSE ILE     PTSUNNY   41  28  60 SW10G20   29.73F
HILLSDALE      CLOUDY    37  28  70 S14G21    29.70S WCI  29
HOWELL         CLOUDY    41  29  63 SW13G20   29.65S

CITY           SKY/WX    TMP DP  RH WIND       PRES   REMARKS
JACKSON        CLOUDY    42  28  57 S16       29.69S
LAMBERTVILLE   MOSUNNY   44  28  53 SW9       29.76S
LANSING        SUNNY     42  30  62 SW16G24   29.65R
LAPEER         FAIR      42  28  58 SW17      29.62F
MASON          CLOUDY    43  30  60 S8        29.66S
MONROE         MOSUNNY   43  27  54 SW13G20   29.74S
MT. CLEMENS    PTSUNNY   46  23  39 SW15      29.70R
PONTIAC        PTSUNNY   40  28  62 SW17      29.66F WCI  31
PORT HOPE        N/A     44  29  55 SW13G21   29.55R
PORT HURON     CLOUDY    41  25  52 SW12G20   29.67F
TRI CITIES     MOSUNNY   44  32  62 SW21G29   29.60R
MIDLAND        FAIR      41  31  69 SW9       29.58R
TROY           MOSUNNY   42  27  53 SW17G24   29.70F
SAGINAW HB     CLOUDY    41  32  70 SW16G22   29.60R
$$
MIZ043>046-050>051-056>058-064>065-071>073-077>080-211500-
SOUTHWEST LOWER MICHIGAN

CITY           SKY/WX    TMP DP  RH WIND       PRES   REMARKS
BATTLE CREEK   SUNNY     41  30  65 SW17      29.69R
BENTON HARBOR  MOSUNNY   45  31  58 SW15G24   29.69S
BIG RAPIDS     MOSUNNY   45  35  67 W18G29    29.56R
COLDWATER      SUNNY     42  27  54 SW18G24   29.72R
FREMONT        CLOUDY    46  37  71 W9G21     29.60R
HOLLAND        CLOUDY    47  37  68 SW22G36   29.64R
GRAND RAPIDS   CLOUDY    44  34  67 SW17      29.63R
IONIA          FAIR      42  31  63 SW18G28   29.64R
KALAMAZOO      SUNNY     43  28  55 SW18G25   29.70R
LUDINGTON      CLOUDY    45  27  50 W10G20    29.59R
MARSHALL       SUNNY     41  29  62 SW14G21   29.69R
MOUNT PLEASANT SUNNY     43  33  68 SW12      29.57R
MUSKEGON       CLOUDY    48  36  63 SW18G25   29.63R
SOUTH HAVEN    PTSUNNY   46  34  62 SW20G26   29.67S
$$
MIZ016>042-211500-
NORTHERN LOWER MICHIGAN

CITY           SKY/WX    TMP DP  RH WIND       PRES   REMARKS
ALPENA         SUNNY     42  34  73 SW9       29.46R
BEAVER ISLAND  CLOUDY    42  29  59 W17G25    29.46R
BELLAIRE       MOCLDY    45  32  61 W14G22    29.50R
CADILLAC       SUNNY     42  34  72 SW14G20   29.51R
CHARLEVOIX     PTCLDY    43  30  59 W23G30    29.50R
FRANKFORT      MOCLDY    44  26  48 W15G26    29.55R
GAYLORD        MOSUNNY   41  31  67 SW17      29.45R
GRAYLING       SUNNY     42  32  67 SW10G16   29.49R
HARBOR SPRINGS CLOUDY    44  29  56 W13G25    29.45R
MANISTEE       CLOUDY    45  26  47 W23G29    29.56R
OSCODA         MOSUNNY   40  29  65 SW17      29.51R WCI  32
PELLSTON       CLOUDY    44  31  60 W15G29    29.44R
ROGERS CITY    SUNNY     43  33  69 SW10      29.45R
TRAVERSE CITY  MOCLDY    44  28  53 W17G29    29.51R
$$
MIZ007>008-015-211500-
EASTERN UPPER MICHIGAN

CITY           SKY/WX    TMP DP  RH WIND       PRES   REMARKS
KINROSS        CLOUDY    39  28  64 W14G20    29.41R WCI  31
MACKINAC ISLAN CLOUDY    44  29  57 W22G30    29.41R
NEWBERRY       CLOUDY    35  26  70 W18G31    29.44R WCI  24
S. S. MARIE    CLOUDY    40  29  64 W16G29    29.40R WCI  31
MUNISING         N/A     34  23  64 W15G36    29.50R WCI  24
$$
MIZ004>006-011>014-085-211500-
CENTRAL UPPER MICHIGAN

CITY           SKY/WX    TMP DP  RH WIND       PRES   REMARKS
MANISTIQUE     CLOUDY    37  19  48 W13G18    29.47R WCI  28
ESCANABA       CLOUDY    37  22  54 NW23G31   29.51R WCI  26
MENOMINEE      CLEAR     37  18  46 NW12G23   29.56R WCI  29
SAWYER-GWINN   CLOUDY    28  19  69 W21G31    29.51R WCI  15
$$
MIZ001>003-009>011-084-211500-
WESTERN UPPER MICHIGAN

CITY           SKY/WX    TMP DP  RH WIND       PRES   REMARKS
IRON MOUNTAIN  FLURRIES  31  18  58 NW21G31   29.53R WCI  18
HOUGHTON       HVY SNOW  27  21  78 W35G46    29.49R VSB 1/4 WCI  10
COPPER HARBOR    N/A     31  24  75 N37G46    29.47R WCI  15
IRONWOOD       FLURRIES  24  15  68 W21G28    29.66R WCI   9
$$

ABBREVIATIONS USED IN REMARKS
   TC - TEMPERATURE IN CELSIUS
  WCI - WIND CHILL INDEX
   HX - HEAT INDEX
  VSB - VISIBILITY





USA.gov is the U.S. government's official web portal to all federal, state and local government web resources and services.